This is the latest recevied weather packets stored in our database for station/object OE5HCE. If no packets are shown the sender has not sent any weather packets the latest 10 day(s).
| Time | Temp. | Humidity | Pressure | Rain* | Wind** | Luminosity | Snow |
|---|---|---|---|---|---|---|---|
| 1777681847 | 7.22° C | 76% | 1027 hPa | 0 mm | - | 0 W/m² | - |
| 1777680945 | 7.22° C | 76% | 1027.1 hPa | 0 mm | - | 0 W/m² | - |
| 1777680042 | 7.78° C | 75% | 1027.3 hPa | 0 mm | - | 0 W/m² | - |
| 1777679139 | 7.78° C | 74% | 1027.4 hPa | 0 mm | - | 0 W/m² | - |
| 1777678250 | 8.33° C | 73% | 1027.4 hPa | 0 mm | - | 0 W/m² | - |
| 1777677337 | 8.33° C | 73% | 1027.4 hPa | 0 mm | - | 0 W/m² | - |
| 1777676434 | 8.33° C | 73% | 1027.5 hPa | 0 mm | - | 0 W/m² | - |
| 1777675565 | 8.33° C | 73% | 1027.6 hPa | 0 mm | - | 0 W/m² | - |
| 1777674640 | 8.33° C | 73% | 1027.6 hPa | 0 mm | - | 0 W/m² | - |
| 1777673733 | 8.89° C | 72% | 1027.6 hPa | 0 mm | - | 0 W/m² | - |
| 1777672828 | 8.89° C | 72% | 1027.7 hPa | 0 mm | - | 0 W/m² | - |
| 1777671932 | 8.89° C | 72% | 1027.6 hPa | 0 mm | - | 0 W/m² | - |
| 1777671027 | 9.44° C | 70% | 1027.5 hPa | 0 mm | - | 0 W/m² | - |
| 1777670129 | 10° C | 69% | 1027.6 hPa | 0 mm | - | 0 W/m² | - |
| 1777669230 | 10° C | 67% | 1027.6 hPa | 0 mm | - | 0 W/m² | - |
| 1777668325 | 10.56° C | 66% | 1027.7 hPa | 0 mm | - | 0 W/m² | - |
| 1777667428 | 11.11° C | 65% | 1027.7 hPa | 0 mm | - | 0 W/m² | - |
| 1777666527 | 11.67° C | 63% | 1027.7 hPa | 0 mm | - | 0 W/m² | - |
| 1777665624 | 12.78° C | 60% | 1027.8 hPa | 0 mm | - | 0 W/m² | - |
| 1777664723 | 13.89° C | 56% | 1027.6 hPa | 0 mm | - | 0 W/m² | - |
| 1777663823 | 14.44° C | 54% | 1027.6 hPa | 0 mm | - | 0 W/m² | - |
| 1777662921 | 14.44° C | 53% | 1027.6 hPa | 0 mm | - | 0 W/m² | - |
| 1777662022 | 15.56° C | 52% | 1027.6 hPa | 0 mm | - | 0 W/m² | - |
| 1777661121 | 16.11° C | 50% | 1027.6 hPa | 0 mm | - | 0 W/m² | - |
| 1777660221 | 17.22° C | 49% | 1027.5 hPa | 0 mm | - | 0 W/m² | - |
* Rain latest hour (hover to see other rain measurements)
** Current wind speed in m/s (hover to see current wind gust speed)